| time (UTC) | temp F | wind direction | speed knots | gust knots | rain 1hr in | rain 24hr in | rain mn in | humidity % | barometer mb |
| 20260504150353 | 68 | 241 | 1.7 | 2.6 | 0.00 | 0.00 | 0.00 | 91 | 1010.0 |
| 20260504140853 | 68 | 240 | 3.5 | 3.5 | 0.00 | 0.00 | 0.00 | 91 | 1010.0 |
| 20260504140354 | 69 | 249 | 1.7 | 2.6 | 0.00 | 0.00 | 0.00 | 90 | 1010.0 |
| 20260504130354 | 69 | 260 | 1.7 | 3.5 | 0.00 | 0.00 | 0.00 | 91 | 1009.0 |
| 20260504110353 | 73 | 239 | 0.9 | 4.3 | 0.00 | 0.00 | 0.00 | 80 | 1009.0 |
| 20260504100353 | 75 | 236 | 4.3 | 5.2 | 0.00 | 0.00 | 0.00 | 77 | 1009.0 |
| 20260504081854 | 78 | 265 | 2.6 | 6.1 | 0.00 | 0.00 | 0.00 | 67 | 1008.0 |
| 20260504081354 | 79 | 292 | 6.1 | 10.4 | 0.00 | 0.00 | 0.00 | 67 | 1008.0 |
| 20260504080854 | 78 | 281 | 2.6 | 6.1 | 0.00 | 0.00 | 0.00 | 68 | 1008.0 |
| 20260504080354 | 78 | 257 | 2.6 | 7.0 | 0.00 | 0.00 | 0.00 | 68 | 1009.0 |
| 20260504070354 | 80 | 283 | 6.1 | 9.6 | 0.00 | 0.00 | 0.00 | 64 | 1009.0 |
| 20260504050353 | 82 | 247 | 4.3 | 8.7 | 0.00 | 0.00 | 0.00 | 64 | 1011.0 |
| 20260504045853 | 81 | 227 | 5.2 | 8.7 | 0.00 | 0.00 | 0.00 | 64 | 1011.0 |
| 20260504045354 | 81 | 278 | 7.0 | 8.7 | 0.00 | 0.00 | 0.00 | 65 | 1011.0 |
| 20260504044853 | 80 | 251 | 5.2 | 7.8 | 0.00 | 0.00 | 0.00 | 67 | 1011.0 |
| 20260504044354 | 80 | 283 | 6.1 | 7.8 | 0.00 | 0.00 | 0.00 | 66 | 1011.0 |
| 20260504043854 | 80 | 235 | 7.0 | 7.0 | 0.00 | 0.00 | 0.00 | 66 | 1011.0 |
| 20260504043353 | 82 | 285 | 7.0 | 7.8 | 0.00 | 0.00 | 0.00 | 64 | 1012.0 |
| 20260504042855 | 80 | 233 | 6.1 | 8.7 | 0.00 | 0.00 | 0.00 | 66 | 1012.0 |
| 20260504042354 | 80 | 258 | 4.3 | 7.0 | 0.00 | 0.00 | 0.00 | 66 | 1012.0 |
| 20260504041854 | 80 | 249 | 6.1 | 10.4 | 0.00 | 0.00 | 0.00 | 68 | 1012.0 |
| 20260504041353 | 79 | 279 | 7.8 | 10.4 | 0.00 | 0.00 | 0.00 | 69 | 1012.0 |
| 20260504040853 | 81 | 272 | 4.3 | 8.7 | 0.00 | 0.00 | 0.00 | 67 | 1012.0 |
| 20260504040353 | 80 | 268 | 4.3 | 7.8 | 0.00 | 0.00 | 0.00 | 69 | 1012.0 |
| 20260504035854 | 80 | 272 | 4.3 | 8.7 | 0.00 | 0.00 | 0.00 | 69 | 1012.0 |
| 20260504035354 | 79 | 255 | 5.2 | 8.7 | 0.00 | 0.00 | 0.00 | 69 | 1012.0 |
| 20260504034854 | 80 | 294 | 5.2 | 7.0 | 0.00 | 0.00 | 0.00 | 69 | 1012.0 |
| 20260504034354 | 79 | 250 | 4.3 | 7.8 | 0.00 | 0.00 | 0.00 | 71 | 1012.0 |
| 20260504033853 | 78 | 225 | 5.2 | 9.6 | 0.00 | 0.00 | 0.00 | 72 | 1012.0 |
| 20260504033354 | 78 | 244 | 6.1 | 6.1 | 0.00 | 0.00 | 0.00 | 71 | 1013.0 |
| 20260504032854 | 79 | 233 | 3.5 | 8.7 | 0.00 | 0.00 | 0.00 | 71 | 1013.0 |
| 20260504032353 | 76 | 266 | 4.3 | 7.8 | 0.00 | 0.00 | 0.00 | 76 | 1013.0 |
| 20260504031855 | 76 | 245 | 4.3 | 6.1 | 0.00 | 0.00 | 0.00 | 75 | 1013.0 |
| 20260504031353 | 78 | 273 | 3.5 | 7.0 | 0.00 | 0.00 | 0.00 | 73 | 1013.0 |
| 20260504030854 | 78 | 237 | 6.1 | 9.6 | 0.00 | 0.00 | 0.00 | 71 | 1013.0 |
| 20260504030354 | 78 | 238 | 4.3 | 9.6 | 0.00 | 0.00 | 0.00 | 72 | 1013.0 |
| 20260504025853 | 78 | 315 | 3.5 | 6.1 | 0.00 | 0.00 | 0.00 | 71 | 1013.0 |
| 20260504025353 | 80 | 258 | 6.1 | 8.7 | 0.00 | 0.00 | 0.00 | 67 | 1013.0 |
| 20260504024854 | 80 | 284 | 3.5 | 8.7 | 0.00 | 0.00 | 0.00 | 66 | 1013.0 |
| 20260504024354 | 78 | 285 | 4.3 | 5.2 | 0.00 | 0.00 | 0.00 | 60 | 1013.0 |
| 20260504023854 | 79 | 300 | 7.8 | 9.6 | 0.00 | 0.00 | 0.00 | 63 | 1013.0 |
| 20260504023353 | 82 | 273 | 3.5 | 6.1 | 0.00 | 0.00 | 0.00 | 46 | 1013.0 |
| 20260504022853 | 81 | 327 | 0.0 | 5.2 | 0.00 | 0.00 | 0.00 | 46 | 1013.0 |
| 20260504022354 | 79 | 254 | 2.6 | 4.3 | 0.00 | 0.00 | 0.00 | 44 | 1013.0 |
| 20260504021853 | 80 | 344 | 0.9 | 4.3 | 0.00 | 0.00 | 0.00 | 43 | 1013.0 |
| 20260504021353 | 80 | 227 | 1.7 | 6.1 | 0.00 | 0.00 | 0.00 | 43 | 1013.0 |
| 20260504020853 | 80 | 182 | 6.1 | 7.0 | 0.00 | 0.00 | 0.00 | 48 | 1013.0 |
| 20260504020353 | 79 | 277 | 2.6 | 3.5 | 0.00 | 0.00 | 0.00 | 52 | 1014.0 |
| 20260504015855 | 78 | 208 | 3.5 | 4.3 | 0.00 | 0.00 | 0.00 | 57 | 1013.0 |
| 20260504015353 | 79 | 254 | 2.6 | 4.3 | 0.00 | 0.00 | 0.00 | 54 | 1014.0 |
| 20260504014854 | 79 | 202 | 3.5 | 4.3 | 0.00 | 0.00 | 0.00 | 59 | 1014.0 |
| 20260504014353 | 78 | 313 | 0.0 | 5.2 | 0.00 | 0.00 | 0.00 | 62 | 1014.0 |
| 20260504013853 | 78 | 297 | 2.6 | 4.3 | 0.00 | 0.00 | 0.00 | 61 | 1014.0 |
| 20260504013354 | 78 | 217 | 2.6 | 3.5 | 0.00 | 0.00 | 0.00 | 62 | 1013.0 |
| 20260504012855 | 78 | 65 | 0.9 | 3.5 | 0.00 | 0.00 | 0.00 | 63 | 1014.0 |
| 20260504012353 | 76 | 164 | 0.0 | 1.7 | 0.00 | 0.00 | 0.00 | 64 | 1014.0 |
| 20260504011854 | 77 | 248 | 2.6 | 2.6 | 0.00 | 0.00 | 0.00 | 64 | 1014.0 |
| 20260504011354 | 77 | 204 | 2.6 | 3.5 | 0.00 | 0.00 | 0.00 | 64 | 1014.0 |
| 20260504010853 | 76 | 170 | 2.6 | 3.5 | 0.00 | 0.00 | 0.00 | 67 | 1014.0 |
| 20260504010354 | 75 | 213 | 0.0 | 2.6 | 0.00 | 0.00 | 0.00 | 68 | 1014.0 |
| 20260504005853 | 75 | 304 | 2.6 | 4.3 | 0.00 | 0.00 | 0.00 | 68 | 1014.0 |
| 20260504005354 | 75 | 223 | 0.9 | 4.3 | 0.00 | 0.00 | 0.00 | 67 | 1014.0 |
| 20260504004854 | 74 | 52 | 2.6 | 2.6 | 0.00 | 0.00 | 0.00 | 71 | 1014.0 |
| 20260504004354 | 74 | 217 | 1.7 | 2.6 | 0.00 | 0.00 | 0.00 | 71 | 1014.0 |
| 20260504003853 | 75 | 235 | 1.7 | 2.6 | 0.00 | 0.00 | 0.00 | 68 | 1013.0 |
| 20260504003354 | 73 | 144 | 2.6 | 3.5 | 0.00 | 0.00 | 0.00 | 71 | 1014.0 |
| 20260504002853 | 74 | 274 | 0.9 | 3.5 | 0.00 | 0.00 | 0.00 | 70 | 1014.0 |
| 20260504002354 | 75 | 32 | 2.6 | 6.1 | 0.00 | 0.00 | 0.00 | 67 | 1014.0 |
| 20260504001854 | 75 | 204 | 0.0 | 5.2 | 0.00 | 0.00 | 0.00 | 68 | 1014.0 |
| 20260504001353 | 73 | 183 | 2.6 | 3.5 | 0.00 | 0.00 | 0.00 | 70 | 1013.0 |
| 20260504000853 | 73 | 41 | 0.0 | 4.3 | 0.00 | 0.00 | 0.00 | 69 | 1013.0 |
| 20260504000354 | 73 | 221 | 0.9 | 3.5 | 0.00 | 0.00 | 0.00 | 71 | 1013.0 |
| 20260503235854 | 73 | 353 | 2.6 | 3.5 | 0.00 | 0.00 | 0.00 | 70 | 1014.0 |
| 20260503235353 | 72 | 224 | 0.0 | 1.7 | 0.00 | 0.00 | 0.00 | 71 | 1014.0 |
| 20260503234853 | 72 | 211 | 0.9 | 1.7 | 0.00 | 0.00 | 0.00 | 72 | 1014.0 |
| 20260503234354 | 72 | 196 | 0.9 | 2.6 | 0.00 | 0.00 | 0.00 | 74 | 1014.0 |
| 20260503233853 | 72 | 189 | 0.9 | 3.5 | 0.00 | 0.00 | 0.00 | 75 | 1013.0 |
| 20260503233353 | 72 | 239 | 0.9 | 3.5 | 0.00 | 0.00 | 0.00 | 74 | 1013.0 |
| 20260503232853 | 72 | 1 | 0.9 | 1.7 | 0.00 | 0.00 | 0.00 | 75 | 1013.0 |
| 20260503232354 | 71 | 182 | 0.9 | 3.5 | 0.00 | 0.00 | 0.00 | 75 | 1013.0 |
| 20260503231854 | 71 | 257 | 1.7 | 3.5 | 0.00 | 0.00 | 0.00 | 76 | 1013.0 |
| 20260503231353 | 71 | 174 | 1.7 | 2.6 | 0.00 | 0.00 | 0.00 | 76 | 1013.0 |
| 20260503230853 | 71 | 229 | 0.9 | 2.6 | 0.00 | 0.00 | 0.00 | 76 | 1013.0 |
| 20260503230353 | 70 | 301 | 0.0 | 2.6 | 0.00 | 0.00 | 0.00 | 79 | 1013.0 |
| 20260503225853 | 69 | 100 | 0.9 | 2.6 | 0.00 | 0.00 | 0.00 | 81 | 1013.0 |
| 20260503225353 | 68 | 178 | 1.7 | 2.6 | 0.00 | 0.00 | 0.00 | 82 | 1013.0 |
| 20260503224853 | 67 | 229 | 1.7 | 1.7 | 0.00 | 0.00 | 0.00 | 87 | 1013.0 |
| 20260503224355 | 67 | 33 | 0.0 | 1.7 | 0.00 | 0.00 | 0.00 | 90 | 1013.0 |
| 20260503223853 | 66 | 196 | 1.7 | 1.7 | 0.00 | 0.00 | 0.00 | 92 | 1013.0 |
| 20260503223356 | 66 | 224 | 1.7 | 2.6 | 0.00 | 0.00 | 0.00 | 94 | 1012.0 |
| 20260503222853 | 66 | 244 | 0.9 | 1.7 | 0.00 | 0.00 | 0.00 | 96 | 1013.0 |
| 20260503222354 | 66 | 238 | 1.7 | 1.7 | 0.00 | 0.00 | 0.00 | 97 | 1013.0 |
| 20260503221853 | 66 | 214 | 0.9 | 1.7 | 0.00 | 0.00 | 0.00 | 98 | 1013.0 |
| 20260503221353 | 66 | 215 | 0.0 | 1.7 | 0.00 | 0.00 | 0.00 | 98 | 1012.0 |
| 20260503220853 | 66 | 215 | 0.0 | 1.7 | 0.00 | 0.00 | 0.00 | 98 | 1012.0 |
| 20260503220353 | 66 | 225 | 0.9 | 2.6 | 0.00 | 0.00 | 0.00 | 98 | 1012.0 |
| 20260503215853 | 66 | 259 | 0.9 | 1.7 | 0.00 | 0.00 | 0.00 | 98 | 1012.0 |
| 20260503215354 | 66 | 75 | 0.0 | 1.7 | 0.00 | 0.00 | 0.00 | 98 | 1012.0 |
| 20260503214853 | 65 | 55 | 0.0 | 1.7 | 0.00 | 0.00 | 0.00 | 99 | 1012.0 |
| 20260503213939 | 66 | 280 | 1.7 | 2.6 | 0.00 | 0.00 | 0.00 | 98 | 1012.0 |
| 20260503212916 | 66 | 157 | 0.9 | 1.7 | 0.00 | 0.00 | 0.00 | 99 | 1012.0 |
| 20260503212353 | 66 | 217 | 0.9 | 2.6 | 0.00 | 0.00 | 0.00 | 99 | 1012.0 |
| 20260503211853 | 66 | 214 | 0.9 | 1.7 | 0.00 | 0.00 | 0.00 | 98 | 1012.0 |
| 20260503211355 | 66 | 284 | 0.0 | 1.7 | 0.00 | 0.00 | 0.00 | 98 | 1012.0 |
| 20260503210853 | 66 | 266 | 0.9 | 1.7 | 0.00 | 0.00 | 0.00 | 98 | 1012.0 |
| 20260503210353 | 66 | 273 | 0.9 | 2.6 | 0.00 | 0.00 | 0.00 | 98 | 1012.0 |
| 20260503205853 | 66 | 304 | 0.9 | 1.7 | 0.00 | 0.00 | 0.00 | 98 | 1012.0 |
| 20260503205354 | 65 | 319 | 0.9 | 1.7 | 0.00 | 0.00 | 0.00 | 99 | 1012.0 |
| 20260503204853 | 65 | 267 | 0.0 | 2.6 | 0.00 | 0.00 | 0.00 | 99 | 1012.0 |
| 20260503204353 | 65 | 232 | 1.7 | 2.6 | 0.00 | 0.00 | 0.00 | 98 | 1012.0 |
| 20260503203854 | 65 | 248 | 1.7 | 2.6 | 0.00 | 0.00 | 0.00 | 98 | 1012.0 |
| 20260503203353 | 65 | 238 | 2.6 | 4.3 | 0.00 | 0.00 | 0.00 | 98 | 1012.0 |
| 20260503202853 | 65 | 252 | 0.9 | 2.6 | 0.00 | 0.00 | 0.00 | 98 | 1012.0 |
| 20260503202353 | 65 | 254 | 1.7 | 2.6 | 0.00 | 0.00 | 0.00 | 98 | 1012.0 |
| 20260503201854 | 65 | 196 | 1.7 | 1.7 | 0.00 | 0.00 | 0.00 | 98 | 1012.0 |
| 20260503201354 | 65 | 243 | 1.7 | 1.7 | 0.00 | 0.00 | 0.00 | 98 | 1012.0 |
| 20260503200855 | 65 | 217 | 0.9 | 2.6 | 0.00 | 0.00 | 0.00 | 98 | 1012.0 |
| 20260503200354 | 65 | 242 | 1.7 | 2.6 | 0.00 | 0.00 | 0.00 | 98 | 1011.0 |
| 20260503195855 | 65 | 231 | 0.9 | 1.7 | 0.00 | 0.00 | 0.00 | 98 | 1011.0 |
| 20260503195353 | 65 | 261 | 1.7 | 2.6 | 0.00 | 0.00 | 0.00 | 98 | 1011.0 |
| 20260503194853 | 65 | 244 | 1.7 | 2.6 | 0.00 | 0.00 | 0.00 | 98 | 1011.0 |
| 20260503194354 | 65 | 249 | 0.9 | 2.6 | 0.00 | 0.00 | 0.00 | 97 | 1011.0 |
| 20260503193854 | 65 | 194 | 0.0 | 1.7 | 0.00 | 0.00 | 0.00 | 97 | 1010.0 |
| 20260503193353 | 66 | 208 | 1.7 | 2.6 | 0.00 | 0.00 | 0.00 | 97 | 1011.0 |
| 20260503192854 | 66 | 262 | 0.9 | 1.7 | 0.00 | 0.00 | 0.00 | 97 | 1011.0 |
| 20260503192354 | 66 | 204 | 0.9 | 2.6 | 0.00 | 0.00 | 0.00 | 97 | 1011.0 |
| 20260503191854 | 66 | 56 | 0.0 | 2.6 | 0.00 | 0.00 | 0.00 | 96 | 1011.0 |
| 20260503191353 | 66 | 356 | 1.7 | 1.7 | 0.00 | 0.00 | 0.00 | 96 | 1011.0 |
| 20260503190853 | 64 | 241 | 1.7 | 2.6 | 0.00 | 0.00 | 0.00 | 94 | 1011.0 |
| 20260503190353 | 65 | 218 | 0.9 | 2.6 | 0.00 | 0.00 | 0.00 | 94 | 1010.0 |
| 20260503185854 | 65 | 227 | 0.9 | 2.6 | 0.00 | 0.00 | 0.00 | 94 | 1010.0 |
| 20260503185354 | 65 | 262 | 0.9 | 1.7 | 0.00 | 0.00 | 0.00 | 94 | 1011.0 |
| 20260503184854 | 65 | 233 | 1.7 | 2.6 | 0.00 | 0.00 | 0.00 | 94 | 1010.0 |
| 20260503184353 | 65 | 234 | 0.9 | 3.5 | 0.00 | 0.00 | 0.00 | 94 | 1010.0 |
| 20260503183853 | 65 | 224 | 1.7 | 2.6 | 0.00 | 0.00 | 0.00 | 94 | 1010.0 |
| 20260503183353 | 65 | 208 | 1.7 | 3.5 | 0.00 | 0.00 | 0.00 | 94 | 1010.0 |
| 20260503182854 | 65 | 221 | 0.9 | 2.6 | 0.00 | 0.00 | 0.00 | 95 | 1010.0 |
| 20260503182354 | 65 | 254 | 1.7 | 3.5 | 0.00 | 0.00 | 0.00 | 95 | 1010.0 |
| 20260503181855 | 65 | 281 | 1.7 | 2.6 | 0.00 | 0.00 | 0.00 | 96 | 1010.0 |
| 20260503181353 | 65 | 241 | 0.9 | 3.5 | 0.00 | 0.00 | 0.00 | 96 | 1010.0 |
| 20260503180853 | 65 | 260 | 1.7 | 1.7 | 0.00 | 0.00 | 0.00 | 95 | 1010.0 |
| 20260503180353 | 66 | 203 | 0.0 | 2.6 | 0.00 | 0.00 | 0.00 | 95 | 1010.0 |
| 20260503175853 | 66 | 232 | 2.6 | 3.5 | 0.00 | 0.00 | 0.00 | 95 | 1010.0 |
| 20260503175353 | 66 | 246 | 0.0 | 3.5 | 0.00 | 0.00 | 0.00 | 95 | 1010.0 |
| 20260503174855 | 66 | 224 | 1.7 | 3.5 | 0.00 | 0.00 | 0.00 | 95 | 1010.0 |
| 20260503174354 | 66 | 244 | 1.7 | 4.3 | 0.00 | 0.00 | 0.00 | 95 | 1010.0 |
| 20260503173854 | 66 | 183 | 2.6 | 4.3 | 0.00 | 0.00 | 0.00 | 94 | 1010.0 |
| 20260503173353 | 65 | 209 | 1.7 | 3.5 | 0.00 | 0.00 | 0.00 | 95 | 1010.0 |
| 20260503172853 | 65 | 189 | 2.6 | 3.5 | 0.00 | 0.00 | 0.00 | 94 | 1010.0 |
| 20260503172353 | 65 | 28 | 1.7 | 3.5 | 0.00 | 0.00 | 0.00 | 94 | 1010.0 |
| 20260503171853 | 65 | 247 | 2.6 | 3.5 | 0.00 | 0.00 | 0.00 | 91 | 1010.0 |
| 20260503171353 | 66 | 266 | 1.7 | 2.6 | 0.00 | 0.00 | 0.00 | 91 | 1010.0 |
| 20260503170853 | 66 | 237 | 1.7 | 3.5 | 0.00 | 0.00 | 0.00 | 92 | 1010.0 |
| 20260503170353 | 66 | 277 | 0.0 | 3.5 | 0.00 | 0.00 | 0.00 | 92 | 1010.0 |
| 20260503150855 | 67 | 221 | 2.6 | 3.5 | 0.00 | 0.00 | 0.00 | 93 | 1011.0 |